Terug naar catalogus

CZ-6A DEB

ActiefPO
NORAD 61127·DEBRIS·🇨🇳 China

Gelanceerd Aug 6, 2024 vanaf Taiyuan Satellite Launch Center

Loading…

Volgende Passages (komende 24 uur)

TLE

VersSource: Space-Track

Epoch: Sep 14, 2026, 23:24 UTC

1 61127U 24140PV  26257.97516289  .00001644  00000-0  37316-3 0  9995
2 61127  89.0435 264.5094 0086351 325.4969  34.0652 14.53340753109419

Volg CZ-6A DEB in realtime met AllMySat

Download on the App Store